Location: Champignolles
(47.0543°N, 4.5663°E)
Time: 05:17:12
(UTC+00:00)

USA 215 - Pass Details

Date: 30 November 2020
Orbit: 1098 x 1110 km, 123.0° (Epoch: 14 January)

Event Time Altitude Azimuth Distance (km) Brightness Sun altitude
Exits shadow 17:43:41 27° 76° (ENE) 1,981 4.0 -17.9°
Maximum altitude 17:46:58 47° 134° (SE) 1,433 3.6 -18.5°
Drops below altitude 10° 17:53:14 10° 207° (SSW) 2,966 6.0 -19.5°
Sets 17:55:50 0° 213° (SSW) 3,921 6.8 -19.9°
